TimeCDT,TemperatureF,Dew PointF,Humidity,Sea Level PressureIn,VisibilityMPH,Wind Direction,Wind SpeedMPH,Gust SpeedMPH,PrecipitationIn,Events,Conditions,WindDirDegrees,DateUTC
12:13 AM,39.2,33.8,81,29.85,10.0,South,6.9,-,N/A,,Overcast,180,2011-11-01 05:13:00
12:32 AM,39.2,33.8,81,29.84,10.0,South,6.9,-,N/A,,Mostly Cloudy,190,2011-11-01 05:32:00
12:53 AM,41.0,33.8,76,29.84,10.0,South,4.6,-,N/A,,Mostly Cloudy,170,2011-11-01 05:53:00
1:13 AM,41.0,33.8,76,29.82,10.0,South,9.2,-,N/A,,Light Drizzle,180,2011-11-01 06:13:00
1:32 AM,41.0,33.8,76,29.82,10.0,South,8.1,-,N/A,,Mostly Cloudy,180,2011-11-01 06:32:00
1:53 AM,42.8,33.8,70,29.80,10.0,South,10.4,-,N/A,,Overcast,180,2011-11-01 06:53:00
2:13 AM,42.8,32.0,66,29.81,10.0,South,8.1,-,N/A,,Overcast,190,2011-11-01 07:13:00
2:32 AM,42.8,32.0,66,29.79,10.0,South,10.4,16.1,N/A,,Overcast,180,2011-11-01 07:32:00
2:52 AM,42.8,32.0,66,29.78,10.0,South,12.7,19.6,N/A,,Mostly Cloudy,190,2011-11-01 07:52:00
3:13 AM,42.8,32.0,66,29.79,10.0,South,9.2,16.1,N/A,,Overcast,190,2011-11-01 08:13:00
3:32 AM,42.8,32.0,66,29.78,10.0,South,9.2,17.3,N/A,,Overcast,190,2011-11-01 08:32:00
3:52 AM,44.6,32.0,61,29.78,10.0,South,10.4,-,N/A,,Overcast,190,2011-11-01 08:52:00
4:13 AM,42.8,32.0,66,29.78,10.0,SSW,6.9,-,N/A,,Scattered Clouds,210,2011-11-01 09:13:00
4:32 AM,42.8,32.0,66,29.77,10.0,South,10.4,-,N/A,,Scattered Clouds,190,2011-11-01 09:32:00
4:52 AM,42.8,32.0,66,29.78,10.0,SW,8.1,-,N/A,,Scattered Clouds,220,2011-11-01 09:52:00
5:13 AM,42.8,32.0,66,29.77,10.0,SSW,10.4,-,N/A,,Scattered Clouds,210,2011-11-01 10:13:00
5:32 AM,42.8,33.8,70,29.77,10.0,SSW,11.5,-,N/A,Rain,Light Rain,200,2011-11-01 10:32:00
5:52 AM,42.8,33.8,70,29.78,10.0,SW,8.1,-,N/A,Rain,Light Rain,220,2011-11-01 10:52:00
6:13 AM,42.8,32.0,66,29.78,10.0,SW,6.9,-,N/A,,Mostly Cloudy,220,2011-11-01 11:13:00
6:33 AM,42.8,33.8,70,29.77,10.0,SSW,6.9,-,N/A,Rain,Light Rain,200,2011-11-01 11:33:00
6:53 AM,42.8,33.8,70,29.77,10.0,SSW,6.9,-,N/A,Rain,Rain,210,2011-11-01 11:53:00
7:12 AM,41.0,35.6,81,29.77,10.0,SSW,3.5,-,N/A,Rain,Light Rain,210,2011-11-01 12:12:00
7:33 AM,41.0,35.6,81,29.78,10.0,SW,6.9,-,N/A,Rain,Light Rain,220,2011-11-01 12:33:00
7:53 AM,41.0,35.6,81,29.79,10.0,SW,6.9,-,N/A,Rain,Light Rain,220,2011-11-01 12:53:00
8:12 AM,41.0,35.6,81,29.80,10.0,SSW,5.8,-,0.01,Rain,Rain,210,2011-11-01 13:12:00
8:33 AM,39.2,35.6,87,29.81,10.0,SW,4.6,-,0.02,,Overcast,220,2011-11-01 13:33:00
8:53 AM,39.2,37.4,93,29.80,10.0,SW,8.1,-,0.02,Rain,Light Rain,220,2011-11-01 13:53:00
8:55 AM,39.2,37.4,93,29.80,10.0,SSW,6.9,-,0.02,Rain,Light Rain,210,2011-11-01 13:55:00
9:12 AM,39.2,37.4,93,29.79,7.0,South,8.1,-,0.01,Rain,Rain,190,2011-11-01 14:12:00
9:33 AM,41.0,37.4,87,29.80,10.0,WSW,4.6,-,0.02,Rain,Light Rain,240,2011-11-01 14:33:00
9:53 AM,41.0,37.4,87,29.82,10.0,WSW,6.9,-,0.02,Rain,Light Rain,240,2011-11-01 14:53:00
9:55 AM,41.0,37.4,87,29.82,10.0,WSW,5.8,-,0.02,Rain,Light Rain,240,2011-11-01 14:55:00
10:12 AM,41.0,37.4,87,29.82,10.0,SW,6.9,-,N/A,Rain,Light Rain,220,2011-11-01 15:12:00
10:33 AM,41.0,37.4,87,29.80,10.0,SW,5.8,-,N/A,Rain,Light Rain,220,2011-11-01 15:33:00
10:52 AM,42.8,39.2,87,29.82,10.0,WSW,6.9,-,N/A,,Overcast,240,2011-11-01 15:52:00
11:13 AM,42.8,39.2,87,29.83,10.0,SW,9.2,-,N/A,,Mostly Cloudy,230,2011-11-01 16:13:00
11:33 AM,44.6,39.2,81,29.83,10.0,SW,9.2,-,N/A,,Mostly Cloudy,230,2011-11-01 16:33:00
11:52 AM,44.6,39.2,81,29.84,10.0,WSW,8.1,-,N/A,,Scattered Clouds,240,2011-11-01 16:52:00
12:13 PM,44.6,39.2,81,29.83,10.0,WSW,10.4,-,N/A,,Scattered Clouds,240,2011-11-01 17:13:00
12:33 PM,44.6,39.2,81,29.83,10.0,WSW,8.1,-,N/A,,Scattered Clouds,250,2011-11-01 17:33:00
12:53 PM,46.4,39.2,76,29.84,10.0,WSW,5.8,-,N/A,,Scattered Clouds,250,2011-11-01 17:53:00
1:13 PM,46.4,39.2,76,29.83,10.0,WSW,8.1,-,N/A,,Scattered Clouds,240,2011-11-01 18:13:00
1:33 PM,46.4,39.2,76,29.83,10.0,West,8.1,-,N/A,,Scattered Clouds,270,2011-11-01 18:33:00
1:52 PM,46.4,39.2,76,29.84,10.0,West,6.9,-,N/A,,Mostly Cloudy,260,2011-11-01 18:52:00
2:13 PM,46.4,39.2,76,29.85,10.0,WSW,6.9,-,N/A,,Mostly Cloudy,250,2011-11-01 19:13:00
2:33 PM,46.4,37.4,71,29.85,10.0,West,8.1,-,N/A,,Mostly Cloudy,270,2011-11-01 19:33:00
2:53 PM,46.4,35.6,66,29.86,10.0,WSW,9.2,-,N/A,,Scattered Clouds,250,2011-11-01 19:53:00
3:13 PM,48.2,35.6,62,29.86,10.0,West,8.1,-,N/A,,Scattered Clouds,260,2011-11-01 20:13:00
3:33 PM,48.2,33.8,58,29.86,10.0,West,9.2,-,N/A,,Clear,270,2011-11-01 20:33:00
3:52 PM,48.2,33.8,58,29.87,10.0,West,6.9,-,N/A,,Clear,280,2011-11-01 20:52:00
4:13 PM,48.2,33.8,58,29.87,10.0,WNW,8.1,-,N/A,,Clear,290,2011-11-01 21:13:00
4:33 PM,48.2,33.8,58,29.89,10.0,WNW,9.2,-,N/A,,Clear,290,2011-11-01 21:33:00
4:53 PM,48.2,33.8,58,29.89,10.0,WNW,5.8,-,N/A,,Clear,290,2011-11-01 21:53:00
5:13 PM,46.4,32.0,57,29.90,10.0,West,4.6,-,N/A,,Clear,280,2011-11-01 22:13:00
5:33 PM,46.4,32.0,57,29.90,10.0,West,6.9,-,N/A,,Clear,280,2011-11-01 22:33:00
5:52 PM,44.6,32.0,61,29.92,10.0,West,3.5,-,N/A,,Clear,280,2011-11-01 22:52:00
6:12 PM,42.8,32.0,66,29.92,10.0,Calm,Calm,-,N/A,,Clear,0,2011-11-01 23:12:00
6:33 PM,39.2,32.0,75,29.93,10.0,Calm,Calm,-,N/A,,Clear,0,2011-11-01 23:33:00
6:53 PM,37.4,32.0,81,29.95,10.0,Calm,Calm,-,N/A,,Clear,0,2011-11-01 23:53:00
7:12 PM,35.6,32.0,87,29.95,10.0,Calm,Calm,-,N/A,,Clear,0,2011-11-02 00:12:00
7:33 PM,35.6,30.2,81,29.96,10.0,Calm,Calm,-,N/A,,Clear,0,2011-11-02 00:33:00
7:52 PM,33.8,30.2,87,29.97,10.0,Calm,Calm,-,N/A,,Clear,0,2011-11-02 00:52:00
8:12 PM,33.8,30.2,87,29.98,10.0,NNW,3.5,-,N/A,,Clear,330,2011-11-02 01:12:00
8:33 PM,33.8,30.2,87,29.99,10.0,Calm,Calm,-,N/A,,Clear,0,2011-11-02 01:33:00
8:53 PM,33.8,28.4,81,29.99,10.0,Calm,Calm,-,N/A,,Clear,0,2011-11-02 01:53:00
9:12 PM,30.2,28.4,93,30.00,10.0,Calm,Calm,-,N/A,,Clear,0,2011-11-02 02:12:00
9:33 PM,30.2,28.4,93,30.01,10.0,Calm,Calm,-,N/A,,Clear,0,2011-11-02 02:33:00
9:52 PM,28.4,26.6,93,30.01,10.0,Calm,Calm,-,N/A,,Clear,0,2011-11-02 02:52:00
10:13 PM,28.4,26.6,93,30.02,10.0,Calm,Calm,-,N/A,,Clear,0,2011-11-02 03:13:00
10:33 PM,28.4,26.6,93,30.02,10.0,Calm,Calm,-,N/A,,Clear,0,2011-11-02 03:33:00
10:52 PM,28.4,26.6,93,30.02,10.0,Calm,Calm,-,N/A,,Clear,0,2011-11-02 03:52:00
11:13 PM,28.4,26.6,93,30.03,10.0,Calm,Calm,-,N/A,,Clear,0,2011-11-02 04:13:00
11:33 PM,28.4,26.6,93,30.02,10.0,Calm,Calm,-,N/A,,Clear,0,2011-11-02 04:33:00
11:52 PM,28.4,26.6,93,30.02,10.0,Calm,Calm,-,N/A,,Clear,0,2011-11-02 04:52:00